�������l�o���
Date,Time,MP-1(��Sv/h),MP-2(��Sv/h),MP-3(��Sv/h),MP-4(��Sv/h),MP-5(��Sv/h),MP-6(��Sv/h),MP-7(��Sv/h),MP-8(��Sv/h),����,����(m/s),���J
2017/01/24,00:00,1.043,1.768,1.146,1.992,1.374,0.549,1.012,0.944,���k��,1.5,��
2017/01/24,00:10,1.041,1.772,1.145,1.992,1.370,0.549,1.011,0.943,���k��,3.4,��
2017/01/24,00:20,1.041,1.772,1.147,1.997,1.374,0.550,1.013,0.942,���k��,5.2,��
2017/01/24,00:30,1.041,1.769,1.145,1.996,1.373,0.548,1.012,0.942,���k��,4.7,��
2017/01/24,00:40,1.041,1.770,1.146,1.994,1.370,0.548,1.013,0.944,���k��,4.1,��
2017/01/24,00:50,1.042,1.770,1.145,1.994,1.369,0.549,1.013,0.944,���k��,5.4,��
2017/01/24,01:00,1.038,1.769,1.146,1.995,1.371,0.548,1.013,0.944,��,3.9,��
2017/01/24,01:10,1.041,1.768,1.145,1.994,1.371,0.550,1.013,0.943,���k��,3.0,��
2017/01/24,01:20,1.042,1.769,1.147,1.992,1.371,0.548,1.013,0.942,���k��,4.7,��
2017/01/24,01:30,1.039,1.767,1.144,1.994,1.369,0.550,1.011,0.942,���k��,6.8,��
2017/01/24,01:40,1.037,1.770,1.145,1.997,1.368,0.549,1.015,0.944,���k��,7.3,��
2017/01/24,01:50,1.042,1.768,1.145,1.993,1.368,0.547,1.012,0.944,���k��,3.5,��
2017/01/24,02:00,1.038,1.764,1.141,1.994,1.369,0.548,1.013,0.944,���k��,3.1,��
2017/01/24,02:10,1.039,1.770,1.145,1.996,1.370,0.549,1.015,0.941,��,3.4,��
2017/01/24,02:20,1.038,1.769,1.143,1.994,1.368,0.549,1.012,0.943,���쐼,1.7,��
2017/01/24,02:30,1.039,1.766,1.142,1.993,1.367,0.548,1.012,0.942,���쐼,2.0,��
2017/01/24,02:40,1.040,1.766,1.144,1.992,1.364,0.547,1.014,0.944,��,4.6,��
2017/01/24,02:50,1.040,1.769,1.144,1.994,1.367,0.548,1.011,0.943,��,6.4,��
2017/01/24,03:00,1.039,1.769,1.146,1.995,1.368,0.548,1.014,0.943,��,5.4,��
2017/01/24,03:10,1.042,1.764,1.143,1.993,1.369,0.549,1.012,0.944,��,6.0,��
2017/01/24,03:20,1.040,1.769,1.144,1.994,1.369,0.547,1.014,0.943,��,6.4,��
2017/01/24,03:30,1.039,1.768,1.144,1.993,1.367,0.548,1.012,0.945,��,5.3,��
2017/01/24,03:40,1.041,1.766,1.144,1.994,1.368,0.547,1.011,0.944,���k��,6.1,��
2017/01/24,03:50,1.042,1.767,1.143,1.997,1.368,0.547,1.013,0.943,���k��,5.7,��
2017/01/24,04:00,1.040,1.768,1.143,1.995,1.368,0.548,1.013,0.944,���k��,6.4,��
2017/01/24,04:10,1.042,1.770,1.145,1.996,1.369,0.549,1.014,0.943,��,6.1,��
2017/01/24,04:20,1.039,1.769,1.145,1.996,1.369,0.548,1.014,0.943,��,6.6,��
2017/01/24,04:30,1.038,1.769,1.146,1.995,1.368,0.548,1.015,0.944,���k��,6.5,��
2017/01/24,04:40,1.042,1.768,1.145,1.997,1.368,0.548,1.015,0.945,���k��,6.2,��
2017/01/24,04:50,1.039,1.767,1.146,1.998,1.370,0.548,1.014,0.943,��,4.9,��
2017/01/24,05:00,1.039,1.767,1.144,1.998,1.369,0.548,1.014,0.942,��,5.1,��
2017/01/24,05:10,1.039,1.766,1.143,1.997,1.369,0.547,1.014,0.944,��,5.2,��
2017/01/24,05:20,1.038,1.768,1.144,1.995,1.367,0.549,1.014,0.942,��,6.1,��
2017/01/24,05:30,1.040,1.767,1.144,1.998,1.368,0.547,1.012,0.944,��,5.6,��
2017/01/24,05:40,1.040,1.764,1.143,1.997,1.369,0.548,1.014,0.943,��,4.4,��
2017/01/24,05:50,1.038,1.768,1.145,1.994,1.366,0.546,1.013,0.945,��,4.5,��
2017/01/24,06:00,1.040,1.765,1.143,1.996,1.366,0.546,1.015,0.942,���k��,3.5,��
2017/01/24,06:10,1.038,1.764,1.140,1.994,1.365,0.550,1.013,0.943,��,1.9,��
2017/01/24,06:20,1.038,1.766,1.141,1.995,1.368,0.548,1.012,0.945,�쐼,1.5,��
2017/01/24,06:30,1.038,1.768,1.146,1.994,1.367,0.547,1.013,0.943,��쐼,1.5,��
2017/01/24,06:40,1.038,1.768,1.143,1.991,1.367,0.549,1.013,0.943,�쐼,1.1,��
2017/01/24,06:50,1.038,1.767,1.142,1.995,1.367,0.548,1.013,0.944,��쐼,1.1,��
2017/01/24,07:00,1.038,1.765,1.142,1.996,1.364,0.546,1.011,0.943,-,CALM,��
2017/01/24,07:10,1.037,1.764,1.144,1.991,1.365,0.547,1.012,0.945,�k�k��,0.8,��
2017/01/24,07:20,1.038,1.768,1.139,1.994,1.365,0.546,1.012,0.943,�쐼,1.2,��
2017/01/24,07:30,1.037,1.766,1.137,1.993,1.366,0.547,1.012,0.942,���k��,0.9,��
2017/01/24,07:40,1.039,1.766,1.144,1.991,1.365,0.548,1.011,0.943,��,1.5,��
2017/01/24,07:50,1.037,1.763,1.144,1.992,1.367,0.548,1.012,0.942,���k��,2.0,��
2017/01/24,08:00,1.039,1.768,1.144,1.991,1.366,0.547,1.013,0.945,��,2.6,��
2017/01/24,08:10,1.042,1.766,1.143,1.992,1.365,0.547,1.012,0.943,��,3.5,��
2017/01/24,08:20,1.041,1.765,1.146,1.991,1.366,0.546,1.011,0.943,��,4.2,��
2017/01/24,08:30,1.040,1.768,1.144,1.994,1.365,0.546,1.013,0.943,��,4.2,��
2017/01/24,08:40,1.040,1.766,1.142,1.992,1.365,0.548,1.015,0.943,���쐼,4.8,��
2017/01/24,08:50,1.039,1.770,1.140,1.995,1.367,0.548,1.014,0.945,��,6.2,��
2017/01/24,09:00,1.037,1.766,1.143,1.993,1.369,0.547,1.015,0.943,���k��,5.4,��
2017/01/24,09:10,1.040,1.770,1.145,1.995,1.370,0.548,1.015,0.943,��,6.5,��
2017/01/24,09:20,1.041,1.768,1.145,1.997,1.368,0.548,1.015,0.944,��,7.9,��
2017/01/24,09:30,1.041,1.769,1.147,1.995,1.370,0.547,1.014,0.942,��,7.9,��
2017/01/24,09:40,1.041,1.768,1.145,1.994,1.369,0.546,1.017,0.943,��,8.1,��
2017/01/24,09:50,1.043,1.770,1.146,1.997,1.369,0.546,1.014,0.945,��,8.8,��
2017/01/24,10:00,1.045,1.771,1.144,1.995,1.371,0.546,1.012,0.944,��,8.1,��
2017/01/24,10:10,1.044,1.775,1.147,1.999,1.371,0.545,1.013,0.944,���쐼,9.4,��
2017/01/24,10:20,1.043,1.769,1.147,1.998,1.368,0.548,1.013,0.944,���k��,11.7,��
2017/01/24,10:30,1.044,1.775,1.147,1.996,1.371,0.547,1.015,0.945,��,9.9,��
2017/01/24,10:40,1.046,1.773,1.149,1.996,1.375,0.550,1.015,0.945,��,7.5,��
2017/01/24,10:50,1.044,1.770,1.145,1.999,1.375,0.550,1.013,0.944,��,6.1,��
2017/01/24,11:00,1.044,1.773,-,1.999,1.375,0.551,1.015,0.945,��,8.2,��
2017/01/24,11:10,1.045,1.771,-,1.999,1.374,0.551,1.014,0.945,��,8.0,��
2017/01/24,11:20,1.044,1.773,-,1.998,1.376,0.550,1.013,0.944,���쐼,7.6,��
2017/01/24,11:30,1.046,1.774,-,1.997,1.378,0.549,1.014,0.946,��,7.2,��
2017/01/24,11:40,1.047,1.773,-,2.001,1.377,0.552,1.014,0.946,��,8.1,��
2017/01/24,11:50,1.045,1.774,-,2.002,1.380,0.550,1.014,0.947,��,8.8,��
2017/01/24,12:00,1.046,1.778,-,2.001,1.380,0.551,1.014,0.946,��,8.0,��
2017/01/24,12:10,1.049,1.775,-,2.003,1.382,0.552,1.014,0.948,���k��,8.5,��
2017/01/24,12:20,1.045,1.775,-,2.001,1.379,0.552,1.015,0.948,���k��,8.8,��
2017/01/24,12:30,1.048,1.774,-,2.003,1.382,0.552,1.016,0.946,���k��,10.6,��
2017/01/24,12:40,1.047,1.778,-,2.000,1.381,0.551,1.017,0.945,��,7.3,��
2017/01/24,12:50,1.048,1.773,-,2.005,1.382,0.552,1.015,0.945,���k��,10.7,��
2017/01/24,13:00,1.049,1.778,-,2.003,1.383,0.553,1.017,0.947,���k��,9.9,��
2017/01/24,13:10,1.050,1.778,-,2.005,1.383,0.553,1.017,0.946,�k��,8.3,��
2017/01/24,13:20,1.048,1.781,-,2.005,1.382,0.552,1.017,0.946,�k��,7.5,��
2017/01/24,13:30,1.049,1.777,-,2.001,1.385,0.552,1.017,0.948,�k�k��,7.1,��
2017/01/24,13:40,1.050,1.779,-,2.007,1.383,0.552,1.016,0.946,�k,5.8,��
2017/01/24,13:50,1.050,1.776,-,2.002,1.383,0.552,1.017,0.946,�k�k��,7.8,��
2017/01/24,14:00,1.049,1.780,-,2.006,1.386,0.551,1.016,0.946,�k�k��,10.4,��
2017/01/24,14:10,1.047,1.780,-,2.001,1.385,0.549,1.016,0.946,�k�k��,10.0,��
2017/01/24,14:20,1.047,1.778,-,2.005,1.385,0.552,1.019,0.945,�k��,10.2,��
2017/01/24,14:30,1.045,1.780,-,2.006,1.383,0.551,1.017,0.945,�k��,9.4,��
2017/01/24,14:40,1.046,1.779,-,2.002,1.386,0.548,1.016,0.945,���k��,8.1,��
2017/01/24,14:50,1.048,1.780,-,1.999,1.385,0.547,1.016,0.944,�k��,8.0,��
2017/01/24,15:00,1.049,1.783,-,2.003,1.385,0.549,1.015,0.946,�k��,6.9,��
2017/01/24,15:10,1.049,1.781,-,2.004,1.383,0.548,1.016,0.946,�k��,7.6,��
2017/01/24,15:20,1.050,1.781,-,2.005,1.383,0.549,1.015,0.946,�k��,8.0,��
2017/01/24,15:30,1.050,1.779,-,2.005,1.383,0.548,1.016,0.946,�k��,7.9,��
2017/01/24,15:40,1.048,1.782,-,2.007,1.386,0.549,1.015,0.945,���k��,6.7,��
2017/01/24,15:50,1.047,1.781,-,2.003,1.386,0.549,1.015,0.947,���k��,9.3,��
2017/01/24,16:00,1.048,1.778,-,2.003,1.382,0.549,1.016,0.945,���k��,7.3,��
2017/01/24,16:10,1.047,1.779,1.148,2.001,1.384,0.551,1.016,0.944,�k��,6.8,��
2017/01/24,16:20,1.048,1.782,1.149,2.006,1.383,0.549,1.016,0.946,�k��,7.1,��
2017/01/24,16:30,1.046,1.781,1.150,2.007,1.385,0.551,1.015,0.943,���k��,8.0,��
2017/01/24,16:40,1.046,1.783,1.150,2.004,1.382,0.549,1.017,0.945,�k��,6.9,��
2017/01/24,16:50,1.047,1.780,1.148,2.003,1.384,0.549,1.015,0.946,���k��,6.2,��
2017/01/24,17:00,1.047,1.782,1.149,2.001,1.382,0.548,1.015,0.944,�k��,6.4,��
2017/01/24,17:10,1.045,1.779,1.151,2.001,1.382,0.548,1.015,0.946,�k��,5.6,��
2017/01/24,17:20,1.045,1.781,1.150,2.003,1.386,0.550,1.017,0.946,�k��,5.1,��
2017/01/24,17:30,1.047,1.782,1.153,2.001,1.385,0.549,1.015,0.944,�k��,4.1,��
2017/01/24,17:40,1.043,1.778,1.152,2.002,1.382,0.549,1.015,0.946,�k��,4.8,��
2017/01/24,17:50,1.047,1.780,1.151,2.002,1.385,0.550,1.014,0.945,�k��,5.0,��
2017/01/24,18:00,1.044,1.782,1.150,2.001,1.383,0.549,1.013,0.944,���k��,5.1,��
2017/01/24,18:10,1.045,1.782,1.151,2.005,1.384,0.549,1.016,0.944,���k��,6.8,��
2017/01/24,18:20,1.044,1.781,1.153,2.001,1.384,0.550,1.015,0.945,���k��,5.1,��
2017/01/24,18:30,1.046,1.781,1.152,2.002,1.384,0.549,1.014,0.946,�k��,6.2,��
2017/01/24,18:40,1.044,1.781,1.150,2.001,1.384,0.549,1.014,0.946,�k��,7.1,��
2017/01/24,18:50,1.044,1.779,1.151,2.001,1.386,0.549,1.015,0.945,���k��,5.6,��
2017/01/24,19:00,1.043,1.781,1.150,2.004,1.385,0.548,1.013,0.946,�k��,6.6,��
2017/01/24,19:10,1.045,1.778,1.152,2.001,1.385,0.548,1.014,0.943,�k��,5.9,��
2017/01/24,19:20,1.046,1.778,1.148,2.001,1.384,0.549,1.014,0.944,���k��,5.1,��
2017/01/24,19:30,1.043,1.775,1.150,2.000,1.384,0.550,1.014,0.944,�k��,6.1,��
2017/01/24,19:40,1.043,1.779,1.148,2.001,1.383,0.548,1.015,0.944,���k��,5.2,��
2017/01/24,19:50,1.044,1.775,1.149,2.001,1.381,0.550,1.015,0.944,���k��,5.2,��
2017/01/24,20:00,1.044,1.779,1.148,2.001,1.384,0.550,1.013,0.946,���k��,5.3,��
2017/01/24,20:10,1.044,1.776,1.149,2.001,1.385,0.548,1.014,0.945,���k��,5.2,��
2017/01/24,20:20,1.043,1.778,1.149,2.002,1.383,0.548,1.014,0.945,���k��,5.5,��
2017/01/24,20:30,1.041,1.778,1.149,2.001,1.379,0.548,1.014,0.946,���k��,4.5,��
2017/01/24,20:40,1.043,1.780,1.149,2.000,1.383,0.549,1.012,0.943,���k��,3.8,��
2017/01/24,20:50,1.042,1.778,1.147,2.002,1.382,0.550,1.014,0.946,���k��,3.0,��
2017/01/24,21:00,1.041,1.777,1.147,2.000,1.383,0.547,1.012,0.943,���k��,2.6,��
2017/01/24,21:10,1.042,1.779,1.148,2.000,1.382,0.549,1.013,0.944,��,1.5,��
2017/01/24,21:20,1.042,1.777,1.149,2.000,1.380,0.549,1.012,0.944,���쐼,3.6,��
2017/01/24,21:30,1.043,1.779,1.147,2.001,1.380,0.548,1.012,0.943,��,4.0,��
2017/01/24,21:40,1.042,1.777,1.151,2.001,1.382,0.549,1.012,0.944,��,4.1,��
2017/01/24,21:50,1.041,1.776,1.149,2.002,1.381,0.548,1.013,0.943,��,4.1,��
2017/01/24,22:00,1.042,1.778,1.149,2.001,1.381,0.547,1.012,0.945,��,4.4,��
2017/01/24,22:10,1.041,1.779,1.148,2.001,1.381,0.550,1.013,0.943,��,4.3,��
2017/01/24,22:20,1.044,1.778,1.146,1.999,1.380,0.549,1.015,0.942,��,4.0,��
2017/01/24,22:30,1.042,1.776,1.147,2.002,1.380,0.546,1.012,0.945,��,4.6,��
2017/01/24,22:40,1.042,1.778,1.148,2.002,1.381,0.547,1.013,0.943,��,5.1,��
2017/01/24,22:50,1.042,1.776,1.147,2.003,1.380,0.548,1.015,0.943,��,5.1,��
2017/01/24,23:00,1.043,1.778,1.148,2.002,1.379,0.546,1.014,0.942,��,4.5,��
2017/01/24,23:10,1.043,1.778,1.146,2.001,1.380,0.549,1.013,0.945,��,5.0,��
2017/01/24,23:20,1.041,1.776,1.146,1.997,1.379,0.548,1.015,0.944,��,4.9,��
2017/01/24,23:30,1.041,1.773,1.148,2.002,1.378,0.547,1.012,0.944,��,2.9,��
2017/01/24,23:40,1.041,1.777,1.149,2.000,1.380,0.548,1.011,0.944,��,3.7,��
2017/01/24,23:50,1.040,1.777,1.143,1.998,1.378,0.548,1.013,0.943,��,5.0,��
